Retour au catalogue

COSMOS 2251 DEB

ActifLEO
NORAD 38067·DEBRIS·🇷🇺 Russia

Lancé Jun 16, 1993 depuis Plesetsk Cosmodrome

Loading…

Prochains Passages (prochaines 24 heures)

TLE

VieillissantSource: Space-Track

Époque: Sep 12, 2026, 07:02 UTC

1 38067U 93036BRZ 26255.29353069  .00000741  00000-0  14939-3 0  9993
2 38067  74.0138 110.5454 0070556 191.0158 293.3980 14.61867433665528

Suivez COSMOS 2251 DEB en temps réel avec AllMySat

Download on the App Store